owner,sensor,date,latitude,longitude,vertical_datum,sea_water_temperature,qcFlag
BP,ioos:station:wmo:42369:3,2022-12-01T00:00:00Z,27.1997,-90.2830,448.5,11.2,11111222
BP,ioos:station:wmo:42369:3,2022-12-01T00:20:00Z,27.1997,-90.2831,448.2,11.2,11111222
BP,ioos:station:wmo:42369:3,2022-12-01T00:40:00Z,27.1997,-90.2831,448.3,11.2,11111222
BP,ioos:station:wmo:42369:3,2022-12-01T01:00:00Z,27.1997,-90.2831,447.6,11.2,11111222
BP,ioos:station:wmo:42369:3,2022-12-01T01:20:00Z,27.1997,-90.2831,447.9,11.2,11111222
BP,ioos:station:wmo:42369:3,2022-12-01T01:40:00Z,27.1997,-90.2830,448.2,11.2,11111222
BP,ioos:station:wmo:42369:3,2022-12-01T02:00:00Z,27.1997,-90.2831,448.0,11.2,11111222
BP,ioos:station:wmo:42369:3,2022-12-01T02:20:00Z,27.1998,-90.2829,448.1,11.2,11111222
BP,ioos:station:wmo:42369:3,2022-12-01T02:40:00Z,27.1997,-90.2828,449.5,11.2,11111222
BP,ioos:station:wmo:42369:3,2022-12-01T03:00:00Z,27.1997,-90.2827,447.4,11.2,11111222
BP,ioos:station:wmo:42369:3,2022-12-01T03:20:00Z,27.1998,-90.2826,447.6,11.1,11111222
BP,ioos:station:wmo:42369:3,2022-12-01T03:40:00Z,27.1998,-90.2824,447.8,11.1,11111222
BP,ioos:station:wmo:42369:3,2022-12-01T04:00:00Z,27.1999,-90.2823,447.9,11.1,11111222
BP,ioos:station:wmo:42369:3,2022-12-01T04:20:00Z,27.1999,-90.2822,446.8,11.2,11111222
BP,ioos:station:wmo:42369:3,2022-12-01T04:40:00Z,27.2000,-90.2820,447.3,11.2,11111222
BP,ioos:station:wmo:42369:3,2022-12-01T05:00:00Z,27.2000,-90.2817,447.7,11.2,11111222
BP,ioos:station:wmo:42369:3,2022-12-01T05:20:00Z,27.2000,-90.2816,446.7,11.3,11111222
BP,ioos:station:wmo:42369:3,2022-12-01T05:40:00Z,27.2000,-90.2814,447.3,11.3,11111222
BP,ioos:station:wmo:42369:3,2022-12-01T06:00:00Z,27.2001,-90.2813,447.2,11.3,11111222
BP,ioos:station:wmo:42369:3,2022-12-01T06:20:00Z,27.2002,-90.2812,445.8,11.3,11111222
BP,ioos:station:wmo:42369:3,2022-12-01T06:40:00Z,27.2001,-90.2811,446.7,11.3,11111222
BP,ioos:station:wmo:42369:3,2022-12-01T07:00:00Z,27.2001,-90.2810,446.4,11.3,11111222
BP,ioos:station:wmo:42369:3,2022-12-01T07:20:00Z,27.2002,-90.2809,446.8,11.2,11111222
BP,ioos:station:wmo:42369:3,2022-12-01T07:40:00Z,27.2003,-90.2809,446.3,11.2,11111222
BP,ioos:station:wmo:42369:3,2022-12-01T08:00:00Z,27.2002,-90.2809,446.5,11.2,11111222
BP,ioos:station:wmo:42369:3,2022-12-01T08:20:00Z,27.2002,-90.2810,446.6,11.2,11111222
BP,ioos:station:wmo:42369:3,2022-12-01T08:40:00Z,27.2002,-90.2809,446.3,11.2,11111222
BP,ioos:station:wmo:42369:3,2022-12-01T09:00:00Z,27.2002,-90.2810,446.3,11.2,11111222
BP,ioos:station:wmo:42369:3,2022-12-01T09:20:00Z,27.2003,-90.2810,446.4,11.2,11111222
BP,ioos:station:wmo:42369:3,2022-12-01T09:40:00Z,27.2003,-90.2810,446.5,11.2,11111222
BP,ioos:station:wmo:42369:3,2022-12-01T10:00:00Z,27.2004,-90.2809,445.6,11.3,11111222
BP,ioos:station:wmo:42369:3,2022-12-01T10:20:00Z,27.2004,-90.2808,445.6,11.3,11111222
BP,ioos:station:wmo:42369:3,2022-12-01T10:40:00Z,27.2004,-90.2807,446.3,11.2,11111222
BP,ioos:station:wmo:42369:3,2022-12-01T11:00:00Z,27.2004,-90.2806,445.9,11.3,11111222
BP,ioos:station:wmo:42369:3,2022-12-01T11:20:00Z,27.2006,-90.2806,445.0,11.3,11111222
BP,ioos:station:wmo:42369:3,2022-12-01T11:40:00Z,27.2006,-90.2806,444.9,11.3,11111222
BP,ioos:station:wmo:42369:3,2022-12-01T12:00:00Z,27.2006,-90.2806,445.7,11.3,11111222
BP,ioos:station:wmo:42369:3,2022-12-01T12:20:00Z,27.2007,-90.2805,445.6,11.3,11111222
BP,ioos:station:wmo:42369:3,2022-12-01T12:40:00Z,27.2007,-90.2805,445.2,11.3,11111222
BP,ioos:station:wmo:42369:3,2022-12-01T13:00:00Z,27.2006,-90.2804,444.8,11.3,11111222
BP,ioos:station:wmo:42369:3,2022-12-01T13:20:00Z,27.2006,-90.2804,445.3,11.3,11111222
BP,ioos:station:wmo:42369:3,2022-12-01T13:40:00Z,27.2006,-90.2804,445.0,11.3,11111222
BP,ioos:station:wmo:42369:3,2022-12-01T14:00:00Z,27.2006,-90.2804,445.7,11.3,11111222
BP,ioos:station:wmo:42369:3,2022-12-01T14:20:00Z,27.2007,-90.2803,445.1,11.4,11111222
BP,ioos:station:wmo:42369:3,2022-12-01T14:40:00Z,27.2007,-90.2802,445.0,11.4,11111222
BP,ioos:station:wmo:42369:3,2022-12-01T15:00:00Z,27.2007,-90.2801,445.3,11.4,11111222
BP,ioos:station:wmo:42369:3,2022-12-01T15:20:00Z,27.2007,-90.2801,445.2,11.4,11111222
BP,ioos:station:wmo:42369:3,2022-12-01T15:40:00Z,27.2007,-90.2800,446.2,11.4,11111222
BP,ioos:station:wmo:42369:3,2022-12-01T16:00:00Z,27.2007,-90.2800,446.1,11.4,11111222
BP,ioos:station:wmo:42369:3,2022-12-01T16:20:00Z,27.2007,-90.2797,445.6,11.4,11111222
BP,ioos:station:wmo:42369:3,2022-12-01T16:40:00Z,27.2008,-90.2795,446.0,11.4,11111222
BP,ioos:station:wmo:42369:3,2022-12-01T17:00:00Z,27.2008,-90.2794,446.8,11.4,11111222
BP,ioos:station:wmo:42369:3,2022-12-01T17:20:00Z,27.2009,-90.2793,446.5,11.4,11111222
BP,ioos:station:wmo:42369:3,2022-12-01T17:40:00Z,27.2009,-90.2791,445.0,11.4,11111222
BP,ioos:station:wmo:42369:3,2022-12-01T18:00:00Z,27.2009,-90.2790,446.1,11.4,11111222
BP,ioos:station:wmo:42369:3,2022-12-01T18:20:00Z,27.2010,-90.2790,445.5,11.4,11111222
BP,ioos:station:wmo:42369:3,2022-12-01T18:40:00Z,27.2009,-90.2789,445.6,11.4,11111222
BP,ioos:station:wmo:42369:3,2022-12-01T19:00:00Z,27.2009,-90.2789,445.9,11.4,11111222
BP,ioos:station:wmo:42369:3,2022-12-01T19:20:00Z,27.2009,-90.2790,446.1,11.4,11111222
BP,ioos:station:wmo:42369:3,2022-12-01T19:40:00Z,27.2008,-90.2791,447.2,11.4,11111222
BP,ioos:station:wmo:42369:3,2022-12-01T20:00:00Z,27.2007,-90.2793,446.1,11.4,11111222
BP,ioos:station:wmo:42369:3,2022-12-01T20:20:00Z,27.2007,-90.2793,446.3,11.4,11111222
BP,ioos:station:wmo:42369:3,2022-12-01T20:40:00Z,27.2006,-90.2793,447.9,11.4,11111222
BP,ioos:station:wmo:42369:3,2022-12-01T21:00:00Z,27.2007,-90.2793,446.3,11.4,11111222
BP,ioos:station:wmo:42369:3,2022-12-01T21:20:00Z,27.2007,-90.2793,446.2,11.4,11111222
BP,ioos:station:wmo:42369:3,2022-12-01T21:40:00Z,27.2006,-90.2793,446.3,11.3,11111222
BP,ioos:station:wmo:42369:3,2022-12-01T22:00:00Z,27.2007,-90.2794,447.1,11.3,11111222
BP,ioos:station:wmo:42369:3,2022-12-01T22:20:00Z,27.2006,-90.2794,446.3,11.3,11111222
BP,ioos:station:wmo:42369:3,2022-12-01T22:40:00Z,27.2007,-90.2794,446.7,11.3,11111222
BP,ioos:station:wmo:42369:3,2022-12-01T23:00:00Z,27.2006,-90.2795,446.6,11.3,11111222
BP,ioos:station:wmo:42369:3,2022-12-01T23:20:00Z,27.2005,-90.2796,446.0,11.3,11111222
BP,ioos:station:wmo:42369:3,2022-12-01T23:40:00Z,27.2005,-90.2798,445.9,11.2,11111222
BP,ioos:station:wmo:42369:3,2022-12-02T00:00:00Z,27.2004,-90.2801,447.3,11.2,11111222
BP,ioos:station:wmo:42369:3,2022-12-02T00:20:00Z,27.2004,-90.2803,447.2,11.2,11111222
BP,ioos:station:wmo:42369:3,2022-12-02T00:40:00Z,27.2003,-90.2804,446.1,11.2,11111222
BP,ioos:station:wmo:42369:3,2022-12-02T01:00:00Z,27.2003,-90.2805,446.4,11.3,11111222
BP,ioos:station:wmo:42369:3,2022-12-02T01:20:00Z,27.2002,-90.2806,447.3,11.3,11111222
BP,ioos:station:wmo:42369:3,2022-12-02T01:40:00Z,27.2002,-90.2809,446.3,11.3,11111222
BP,ioos:station:wmo:42369:3,2022-12-02T02:00:00Z,27.2002,-90.2810,446.8,11.3,11111222
BP,ioos:station:wmo:42369:3,2022-12-02T02:20:00Z,27.2002,-90.2811,446.5,11.3,11111222
BP,ioos:station:wmo:42369:3,2022-12-02T02:40:00Z,27.2001,-90.2813,446.7,11.3,11111222
BP,ioos:station:wmo:42369:3,2022-12-02T03:00:00Z,27.2001,-90.2815,446.9,11.3,11111222
BP,ioos:station:wmo:42369:3,2022-12-02T03:20:00Z,27.2001,-90.2816,447.5,11.3,11111222
BP,ioos:station:wmo:42369:3,2022-12-02T03:40:00Z,27.2002,-90.2817,447.1,11.3,11111222
BP,ioos:station:wmo:42369:3,2022-12-02T04:00:00Z,27.2001,-90.2819,446.9,11.3,11111222
BP,ioos:station:wmo:42369:3,2022-12-02T04:20:00Z,27.2001,-90.2820,447.0,11.2,11111222
BP,ioos:station:wmo:42369:3,2022-12-02T04:40:00Z,27.2002,-90.2821,445.9,11.2,11111222
BP,ioos:station:wmo:42369:3,2022-12-02T05:00:00Z,27.2002,-90.2821,447.0,11.2,11111222
BP,ioos:station:wmo:42369:3,2022-12-02T05:20:00Z,27.2002,-90.2822,445.3,11.2,11111222
BP,ioos:station:wmo:42369:3,2022-12-02T05:40:00Z,27.2001,-90.2823,446.4,11.3,11111222
BP,ioos:station:wmo:42369:3,2022-12-02T06:00:00Z,27.2001,-90.2822,446.1,11.3,11111222
BP,ioos:station:wmo:42369:3,2022-12-02T06:20:00Z,27.2001,-90.2822,447.3,11.3,11111222
BP,ioos:station:wmo:42369:3,2022-12-02T06:40:00Z,27.2001,-90.2822,447.4,11.3,11111222
BP,ioos:station:wmo:42369:3,2022-12-02T07:00:00Z,27.1999,-90.2830,447.0,11.3,11111222
BP,ioos:station:wmo:42369:3,2022-12-02T07:20:00Z,27.1999,-90.2830,447.6,11.3,11111222
BP,ioos:station:wmo:42369:3,2022-12-02T07:40:00Z,27.2000,-90.2831,447.6,11.3,11111222
BP,ioos:station:wmo:42369:3,2022-12-02T08:00:00Z,27.2000,-90.2831,446.9,11.3,11111222
BP,ioos:station:wmo:42369:3,2022-12-02T08:20:00Z,27.2000,-90.2830,446.3,11.3,11111222
BP,ioos:station:wmo:42369:3,2022-12-02T08:40:00Z,27.2001,-90.2829,446.1,11.2,11111222
BP,ioos:station:wmo:42369:3,2022-12-02T09:00:00Z,27.2001,-90.2828,447.3,11.2,11111222
BP,ioos:station:wmo:42369:3,2022-12-02T09:20:00Z,27.2001,-90.2827,446.5,11.2,11111222
BP,ioos:station:wmo:42369:3,2022-12-02T09:40:00Z,27.2001,-90.2826,445.5,11.2,11111222
BP,ioos:station:wmo:42369:3,2022-12-02T10:00:00Z,27.2001,-90.2825,446.3,11.1,11111222
BP,ioos:station:wmo:42369:3,2022-12-02T10:20:00Z,27.2002,-90.2822,446.4,11.1,11111222
BP,ioos:station:wmo:42369:3,2022-12-02T10:40:00Z,27.2002,-90.2819,446.3,11.1,11111222
BP,ioos:station:wmo:42369:3,2022-12-02T11:00:00Z,27.2003,-90.2817,445.8,11.1,11111222
BP,ioos:station:wmo:42369:3,2022-12-02T11:20:00Z,27.2003,-90.2817,445.2,11.2,11111222
BP,ioos:station:wmo:42369:3,2022-12-02T11:40:00Z,27.2004,-90.2815,446.0,11.2,11111222
BP,ioos:station:wmo:42369:3,2022-12-02T12:00:00Z,27.2004,-90.2814,444.8,11.3,11111222
BP,ioos:station:wmo:42369:3,2022-12-02T12:20:00Z,27.2005,-90.2809,445.8,11.3,11111222
BP,ioos:station:wmo:42369:3,2022-12-02T12:40:00Z,27.2005,-90.2808,446.1,11.3,11111222
BP,ioos:station:wmo:42369:3,2022-12-02T13:00:00Z,27.2005,-90.2806,446.0,11.3,11111222
BP,ioos:station:wmo:42369:3,2022-12-02T13:20:00Z,27.2006,-90.2803,445.9,11.4,11111222
BP,ioos:station:wmo:42369:3,2022-12-02T13:40:00Z,27.2006,-90.2803,445.4,11.4,11111222
BP,ioos:station:wmo:42369:3,2022-12-02T14:00:00Z,27.2008,-90.2796,445.8,11.4,11111222
BP,ioos:station:wmo:42369:3,2022-12-02T14:20:00Z,27.2009,-90.2793,446.3,11.3,11111222
BP,ioos:station:wmo:42369:3,2022-12-02T14:40:00Z,27.2011,-90.2791,446.0,11.4,11111222
BP,ioos:station:wmo:42369:3,2022-12-02T15:00:00Z,27.2012,-90.2788,445.6,11.4,11111222
BP,ioos:station:wmo:42369:3,2022-12-02T15:20:00Z,27.2013,-90.2786,444.7,11.4,11111222
BP,ioos:station:wmo:42369:3,2022-12-02T15:40:00Z,27.2015,-90.2783,445.5,11.4,11111222
BP,ioos:station:wmo:42369:3,2022-12-02T16:00:00Z,27.2016,-90.2780,445.8,11.4,11111222
BP,ioos:station:wmo:42369:3,2022-12-02T16:20:00Z,27.2017,-90.2777,446.8,11.4,11111222
BP,ioos:station:wmo:42369:3,2022-12-02T16:40:00Z,27.2019,-90.2775,445.8,11.4,11111222
BP,ioos:station:wmo:42369:3,2022-12-02T17:00:00Z,27.2019,-90.2775,446.4,11.4,11111222
BP,ioos:station:wmo:42369:3,2022-12-02T17:20:00Z,27.2020,-90.2773,446.4,11.4,11111222
BP,ioos:station:wmo:42369:3,2022-12-02T17:40:00Z,27.2024,-90.2769,445.7,11.3,11111222
BP,ioos:station:wmo:42369:3,2022-12-02T18:00:00Z,27.2025,-90.2767,446.5,11.3,11111222
BP,ioos:station:wmo:42369:3,2022-12-02T18:20:00Z,27.2026,-90.2766,446.5,11.3,11111222
BP,ioos:station:wmo:42369:3,2022-12-02T18:40:00Z,27.2027,-90.2764,445.6,11.3,11111222
BP,ioos:station:wmo:42369:3,2022-12-02T19:00:00Z,27.2028,-90.2763,446.8,11.3,11111222
BP,ioos:station:wmo:42369:3,2022-12-02T19:20:00Z,27.2028,-90.2763,446.4,11.3,11111222
BP,ioos:station:wmo:42369:3,2022-12-02T19:40:00Z,27.2028,-90.2762,446.1,11.2,11111222
BP,ioos:station:wmo:42369:3,2022-12-02T20:00:00Z,27.2028,-90.2762,446.9,11.2,11111222
BP,ioos:station:wmo:42369:3,2022-12-02T20:20:00Z,27.2027,-90.2762,446.6,11.3,11111222
BP,ioos:station:wmo:42369:3,2022-12-02T20:40:00Z,27.2026,-90.2762,448.0,11.3,11111222
BP,ioos:station:wmo:42369:3,2022-12-02T21:00:00Z,27.2025,-90.2763,448.3,11.3,11111222
BP,ioos:station:wmo:42369:3,2022-12-02T21:20:00Z,27.2023,-90.2764,448.2,11.3,11111222
BP,ioos:station:wmo:42369:3,2022-12-02T21:40:00Z,27.2022,-90.2765,448.0,11.3,11111222
BP,ioos:station:wmo:42369:3,2022-12-02T22:00:00Z,27.2021,-90.2766,447.8,11.3,11111222
BP,ioos:station:wmo:42369:3,2022-12-02T22:20:00Z,27.2020,-90.2767,447.8,11.3,11111222
BP,ioos:station:wmo:42369:3,2022-12-02T22:40:00Z,27.2019,-90.2769,448.3,11.2,11111222
BP,ioos:station:wmo:42369:3,2022-12-02T23:00:00Z,27.2018,-90.2770,448.3,11.2,11111222
BP,ioos:station:wmo:42369:3,2022-12-02T23:20:00Z,27.2017,-90.2770,447.8,11.2,11111222
BP,ioos:station:wmo:42369:3,2022-12-02T23:40:00Z,27.2017,-90.2770,449.0,11.2,11111222
BP,ioos:station:wmo:42369:3,2022-12-03T00:00:00Z,27.2016,-90.2772,447.4,11.2,11111222
BP,ioos:station:wmo:42369:3,2022-12-03T00:20:00Z,27.2014,-90.2775,447.8,11.2,11111222
BP,ioos:station:wmo:42369:3,2022-12-03T00:40:00Z,27.2013,-90.2776,447.9,11.2,11111222
BP,ioos:station:wmo:42369:3,2022-12-03T01:00:00Z,27.2013,-90.2777,447.7,11.2,11111222
BP,ioos:station:wmo:42369:3,2022-12-03T01:20:00Z,27.2012,-90.2779,447.1,11.2,11111222
BP,ioos:station:wmo:42369:3,2022-12-03T01:40:00Z,27.2011,-90.2780,447.8,11.2,11111222
BP,ioos:station:wmo:42369:3,2022-12-03T02:00:00Z,27.2011,-90.2781,446.9,11.1,11111222
BP,ioos:station:wmo:42369:3,2022-12-03T02:20:00Z,27.2010,-90.2782,447.6,11.1,11111222
BP,ioos:station:wmo:42369:3,2022-12-03T02:40:00Z,27.2010,-90.2783,447.3,11.1,11111222
BP,ioos:station:wmo:42369:3,2022-12-03T03:20:00Z,27.2009,-90.2785,447.0,11.2,11111222
BP,ioos:station:wmo:42369:3,2022-12-03T03:40:00Z,27.2008,-90.2786,448.2,11.2,11111222
BP,ioos:station:wmo:42369:3,2022-12-03T04:00:00Z,27.2008,-90.2786,446.4,11.2,11111222
BP,ioos:station:wmo:42369:3,2022-12-03T04:20:00Z,27.2007,-90.2787,447.5,11.2,11111222
BP,ioos:station:wmo:42369:3,2022-12-03T04:40:00Z,27.2007,-90.2787,447.4,11.2,11111222
BP,ioos:station:wmo:42369:3,2022-12-03T05:00:00Z,27.2007,-90.2787,446.8,11.2,11111222
BP,ioos:station:wmo:42369:3,2022-12-03T05:20:00Z,27.2007,-90.2788,447.7,11.2,11111222
BP,ioos:station:wmo:42369:3,2022-12-03T05:40:00Z,27.2007,-90.2788,447.4,11.2,11111222
BP,ioos:station:wmo:42369:3,2022-12-03T06:00:00Z,27.2007,-90.2788,446.1,11.3,11111222
BP,ioos:station:wmo:42369:3,2022-12-03T06:20:00Z,27.2007,-90.2789,447.6,11.3,11111222
BP,ioos:station:wmo:42369:3,2022-12-03T06:40:00Z,27.2007,-90.2789,446.8,11.3,11111222
BP,ioos:station:wmo:42369:3,2022-12-03T07:00:00Z,27.2007,-90.2790,446.7,11.3,11111222
BP,ioos:station:wmo:42369:3,2022-12-03T07:20:00Z,27.2007,-90.2790,447.1,11.3,11111222
BP,ioos:station:wmo:42369:3,2022-12-03T07:40:00Z,27.2007,-90.2790,446.7,11.3,11111222
BP,ioos:station:wmo:42369:3,2022-12-03T08:00:00Z,27.2007,-90.2790,446.9,11.3,11111222
BP,ioos:station:wmo:42369:3,2022-12-03T08:20:00Z,27.2007,-90.2791,446.7,11.3,11111222
BP,ioos:station:wmo:42369:3,2022-12-03T08:40:00Z,27.2007,-90.2791,447.2,11.3,11111222
BP,ioos:station:wmo:42369:3,2022-12-03T09:00:00Z,27.2007,-90.2791,446.8,11.3,11111222
BP,ioos:station:wmo:42369:3,2022-12-03T09:20:00Z,27.2008,-90.2791,446.2,11.3,11111222
BP,ioos:station:wmo:42369:3,2022-12-03T09:40:00Z,27.2007,-90.2791,447.2,11.3,11111222
BP,ioos:station:wmo:42369:3,2022-12-03T10:00:00Z,27.2008,-90.2791,446.8,11.2,11111222
BP,ioos:station:wmo:42369:3,2022-12-03T10:20:00Z,27.2008,-90.2791,446.2,11.2,11111222
BP,ioos:station:wmo:42369:3,2022-12-03T10:40:00Z,27.2008,-90.2790,447.0,11.2,11111222
BP,ioos:station:wmo:42369:3,2022-12-03T11:00:00Z,27.2008,-90.2790,447.4,11.2,11111222
BP,ioos:station:wmo:42369:3,2022-12-03T11:20:00Z,27.2008,-90.2790,446.4,11.2,11111222
BP,ioos:station:wmo:42369:3,2022-12-03T11:40:00Z,27.2008,-90.2790,447.0,11.2,11111222
BP,ioos:station:wmo:42369:3,2022-12-03T12:00:00Z,27.2008,-90.2789,446.9,11.2,11111222
BP,ioos:station:wmo:42369:3,2022-12-03T12:20:00Z,27.2008,-90.2789,446.5,11.2,11111222
BP,ioos:station:wmo:42369:3,2022-12-03T12:40:00Z,27.2008,-90.2788,446.8,11.2,11111222
BP,ioos:station:wmo:42369:3,2022-12-03T13:00:00Z,27.2009,-90.2788,446.4,11.2,11111222
BP,ioos:station:wmo:42369:3,2022-12-03T13:20:00Z,27.2009,-90.2788,446.6,11.2,11111222
BP,ioos:station:wmo:42369:3,2022-12-03T13:40:00Z,27.2009,-90.2788,446.4,11.2,11111222
BP,ioos:station:wmo:42369:3,2022-12-03T14:00:00Z,27.2009,-90.2788,446.2,11.2,11111222
BP,ioos:station:wmo:42369:3,2022-12-03T14:20:00Z,27.2009,-90.2788,446.4,11.2,11111222
BP,ioos:station:wmo:42369:3,2022-12-03T14:40:00Z,27.2009,-90.2788,446.5,11.2,11111222
BP,ioos:station:wmo:42369:3,2022-12-03T15:00:00Z,27.2010,-90.2788,445.6,11.2,11111222
BP,ioos:station:wmo:42369:3,2022-12-03T15:20:00Z,27.2010,-90.2787,445.9,11.2,11111222
BP,ioos:station:wmo:42369:3,2022-12-03T15:40:00Z,27.2010,-90.2787,446.0,11.2,11111222
BP,ioos:station:wmo:42369:3,2022-12-03T16:00:00Z,27.2011,-90.2785,446.5,11.2,11111222
BP,ioos:station:wmo:42369:3,2022-12-03T16:20:00Z,27.2013,-90.2782,445.9,11.2,11111222
BP,ioos:station:wmo:42369:3,2022-12-03T16:40:00Z,27.2014,-90.2781,445.8,11.2,11111222
BP,ioos:station:wmo:42369:3,2022-12-03T17:00:00Z,27.2014,-90.2781,445.6,11.2,11111222
BP,ioos:station:wmo:42369:3,2022-12-03T17:20:00Z,27.2014,-90.2781,445.6,11.2,11111222
BP,ioos:station:wmo:42369:3,2022-12-03T17:40:00Z,27.2015,-90.2780,445.4,11.3,11111222
BP,ioos:station:wmo:42369:3,2022-12-03T18:00:00Z,27.2015,-90.2780,446.1,11.3,11111222
BP,ioos:station:wmo:42369:3,2022-12-03T18:20:00Z,27.2019,-90.2777,445.2,11.3,11111222
BP,ioos:station:wmo:42369:3,2022-12-03T18:40:00Z,27.2019,-90.2779,444.4,11.3,11111222
BP,ioos:station:wmo:42369:3,2022-12-03T19:00:00Z,27.2017,-90.2786,444.4,11.4,11111222
BP,ioos:station:wmo:42369:3,2022-12-03T19:20:00Z,27.2015,-90.2793,445.0,11.3,11111222
BP,ioos:station:wmo:42369:3,2022-12-03T19:40:00Z,27.2014,-90.2795,445.2,11.3,11111222
BP,ioos:station:wmo:42369:3,2022-12-03T20:00:00Z,27.2013,-90.2796,444.7,11.3,11111222
BP,ioos:station:wmo:42369:3,2022-12-03T20:20:00Z,27.2012,-90.2796,444.8,11.3,11111222
BP,ioos:station:wmo:42369:3,2022-12-03T20:40:00Z,27.2013,-90.2795,445.7,11.4,11111222
BP,ioos:station:wmo:42369:3,2022-12-03T21:00:00Z,27.2014,-90.2792,444.5,11.3,11111222
BP,ioos:station:wmo:42369:3,2022-12-03T21:20:00Z,27.2016,-90.2788,445.4,11.3,11111222
BP,ioos:station:wmo:42369:3,2022-12-03T21:40:00Z,27.2017,-90.2783,445.7,11.3,11111222
BP,ioos:station:wmo:42369:3,2022-12-03T22:00:00Z,27.2018,-90.2779,445.4,11.3,11111222
BP,ioos:station:wmo:42369:3,2022-12-03T22:20:00Z,27.2018,-90.2778,445.5,11.3,11111222
BP,ioos:station:wmo:42369:3,2022-12-03T22:40:00Z,27.2018,-90.2776,446.0,11.3,11111222
BP,ioos:station:wmo:42369:3,2022-12-03T23:00:00Z,27.2018,-90.2776,445.5,11.3,11111222
BP,ioos:station:wmo:42369:3,2022-12-03T23:20:00Z,27.2018,-90.2776,446.1,11.2,11111222
BP,ioos:station:wmo:42369:3,2022-12-03T23:40:00Z,27.2018,-90.2776,446.7,11.2,11111222
BP,ioos:station:wmo:42369:3,2022-12-04T00:00:00Z,27.2018,-90.2776,446.0,11.3,11111222
BP,ioos:station:wmo:42369:3,2022-12-04T00:20:00Z,27.2017,-90.2776,446.0,11.3,11111222
BP,ioos:station:wmo:42369:3,2022-12-04T00:40:00Z,27.2017,-90.2777,446.8,11.2,11111222
BP,ioos:station:wmo:42369:3,2022-12-04T01:00:00Z,27.2017,-90.2778,445.7,11.2,11111222
BP,ioos:station:wmo:42369:3,2022-12-04T01:20:00Z,27.2016,-90.2778,446.5,11.2,11111222
BP,ioos:station:wmo:42369:3,2022-12-04T01:40:00Z,27.2016,-90.2779,445.5,11.2,11111222
BP,ioos:station:wmo:42369:3,2022-12-04T02:00:00Z,27.2016,-90.2780,445.4,11.2,11111222
BP,ioos:station:wmo:42369:3,2022-12-04T02:20:00Z,27.2015,-90.2781,446.6,11.2,11111222
BP,ioos:station:wmo:42369:3,2022-12-04T02:40:00Z,27.2014,-90.2782,445.7,11.2,11111222
BP,ioos:station:wmo:42369:3,2022-12-04T03:00:00Z,27.2014,-90.2783,445.7,11.2,11111222
BP,ioos:station:wmo:42369:3,2022-12-04T03:20:00Z,27.2013,-90.2784,446.4,11.3,11111222
BP,ioos:station:wmo:42369:3,2022-12-04T03:40:00Z,27.2013,-90.2784,446.3,11.3,11111222
BP,ioos:station:wmo:42369:3,2022-12-04T04:00:00Z,27.2014,-90.2784,445.1,11.3,11111222
BP,ioos:station:wmo:42369:3,2022-12-04T04:20:00Z,27.2014,-90.2783,445.0,11.3,11111222
BP,ioos:station:wmo:42369:3,2022-12-04T04:40:00Z,27.2014,-90.2783,446.1,11.3,11111222
BP,ioos:station:wmo:42369:3,2022-12-04T05:00:00Z,27.2014,-90.2784,445.4,11.3,11111222
BP,ioos:station:wmo:42369:3,2022-12-04T05:20:00Z,27.2015,-90.2784,445.2,11.3,11111222
BP,ioos:station:wmo:42369:3,2022-12-04T05:40:00Z,27.2014,-90.2784,445.5,11.3,11111222
BP,ioos:station:wmo:42369:3,2022-12-04T06:00:00Z,27.2015,-90.2784,445.5,11.3,11111222
BP,ioos:station:wmo:42369:3,2022-12-04T06:20:00Z,27.2015,-90.2783,446.3,11.3,11111222
BP,ioos:station:wmo:42369:3,2022-12-04T06:40:00Z,27.2015,-90.2783,445.0,11.3,11111222
BP,ioos:station:wmo:42369:3,2022-12-04T07:00:00Z,27.2015,-90.2783,445.1,11.3,11111222
BP,ioos:station:wmo:42369:3,2022-12-04T07:20:00Z,27.2015,-90.2784,445.2,11.4,11111222
BP,ioos:station:wmo:42369:3,2022-12-04T07:40:00Z,27.2015,-90.2784,444.8,11.4,11111222
BP,ioos:station:wmo:42369:3,2022-12-04T08:00:00Z,27.2015,-90.2784,444.6,11.3,11111222
BP,ioos:station:wmo:42369:3,2022-12-04T08:20:00Z,27.2015,-90.2784,445.4,11.3,11111222
BP,ioos:station:wmo:42369:3,2022-12-04T08:40:00Z,27.2015,-90.2784,445.3,11.2,11111222
BP,ioos:station:wmo:42369:3,2022-12-04T09:00:00Z,27.2015,-90.2784,445.5,11.2,11111222
BP,ioos:station:wmo:42369:3,2022-12-04T09:20:00Z,27.2015,-90.2785,445.1,11.2,11111222
BP,ioos:station:wmo:42369:3,2022-12-04T09:40:00Z,27.2015,-90.2785,445.0,11.2,11111222
BP,ioos:station:wmo:42369:3,2022-12-04T10:00:00Z,27.2015,-90.2785,445.3,11.2,11111222
BP,ioos:station:wmo:42369:3,2022-12-04T10:20:00Z,27.2015,-90.2785,445.0,11.2,11111222
BP,ioos:station:wmo:42369:3,2022-12-04T12:20:00Z,27.2018,-90.2782,445.6,11.2,11111222
BP,ioos:station:wmo:42369:3,2022-12-04T12:40:00Z,27.2017,-90.2783,444.8,11.2,11111222
BP,ioos:station:wmo:42369:3,2022-12-04T13:00:00Z,27.2017,-90.2783,445.3,11.2,11111222
BP,ioos:station:wmo:42369:3,2022-12-04T13:20:00Z,27.2017,-90.2783,443.9,11.2,11111222
BP,ioos:station:wmo:42369:3,2022-12-04T14:20:00Z,27.2018,-90.2784,445.0,11.2,11111222
BP,ioos:station:wmo:42369:3,2022-12-04T14:40:00Z,27.2019,-90.2784,445.6,11.1,11111222
BP,ioos:station:wmo:42369:3,2022-12-04T15:00:00Z,27.2019,-90.2784,444.7,11.1,11111222
BP,ioos:station:wmo:42369:3,2022-12-04T15:20:00Z,27.2020,-90.2783,444.7,11.1,11111222
BP,ioos:station:wmo:42369:3,2022-12-04T15:40:00Z,27.2020,-90.2782,445.7,11.1,11111222
BP,ioos:station:wmo:42369:3,2022-12-04T16:00:00Z,27.2021,-90.2780,445.4,11.1,11111222
BP,ioos:station:wmo:42369:3,2022-12-04T16:20:00Z,27.2023,-90.2777,445.4,11.1,11111222
BP,ioos:station:wmo:42369:3,2022-12-04T16:40:00Z,27.2023,-90.2777,444.8,11.1,11111222
BP,ioos:station:wmo:42369:3,2022-12-04T17:00:00Z,27.2023,-90.2776,445.6,11.2,11111222
BP,ioos:station:wmo:42369:3,2022-12-04T17:20:00Z,27.2024,-90.2775,445.3,11.2,11111222
BP,ioos:station:wmo:42369:3,2022-12-04T17:40:00Z,27.2024,-90.2773,445.8,11.2,11111222
BP,ioos:station:wmo:42369:3,2022-12-04T18:00:00Z,27.2025,-90.2772,444.6,11.3,11111222
BP,ioos:station:wmo:42369:3,2022-12-04T18:20:00Z,27.2026,-90.2771,444.8,11.3,11111222
BP,ioos:station:wmo:42369:3,2022-12-04T18:40:00Z,27.2027,-90.2769,444.7,11.3,11111222
BP,ioos:station:wmo:42369:3,2022-12-04T19:00:00Z,27.2028,-90.2768,445.9,11.3,11111222
BP,ioos:station:wmo:42369:3,2022-12-04T19:20:00Z,27.2028,-90.2768,445.4,11.4,11111222
BP,ioos:station:wmo:42369:3,2022-12-04T19:40:00Z,27.2028,-90.2768,445.8,11.3,11111222
BP,ioos:station:wmo:42369:3,2022-12-05T16:20:00Z,27.2036,-90.2765,444.6,11.3,11111222
BP,ioos:station:wmo:42369:3,2022-12-05T16:40:00Z,27.2038,-90.2762,445.5,11.2,11111222
BP,ioos:station:wmo:42369:3,2022-12-05T17:00:00Z,27.2041,-90.2760,445.2,11.3,11111222
BP,ioos:station:wmo:42369:3,2022-12-05T17:20:00Z,27.2044,-90.2758,443.9,11.2,11111222
BP,ioos:station:wmo:42369:3,2022-12-05T17:40:00Z,27.2044,-90.2758,445.5,11.3,11111222
BP,ioos:station:wmo:42369:3,2022-12-05T18:00:00Z,27.2049,-90.2755,445.3,11.3,11111222